Weather History for KRCA - May, 2013

Change the Weather History Date:

Monday, May 13, 2013

  Actual Average (KRAP) Record (KRAP)
Temperature  
Mean Temperature 73 °F 54 °F  
Max Temperature 88 °F 67 °F 92 °F (2001)
Min Temperature 58 °F 41 °F 25 °F (1943)
Degree Days  
Heating Degree Days 0 11  
Month to date heating degree days 170  
Since 1 July heating degree days 6899  
Cooling Degree Days 8 0  
Month to date cooling degree days 0  
Year to date cooling degree days 2  
Growing Degree Days 23 (Base 50)    
Moisture  
Dew Point 43 °F    
Average Humidity 30    
Maximum Humidity 51    
Minimum Humidity 18    
Precipitation  
Precipitation 0.00 in 0.11 in 0.92 in (1982)
Month to date precipitation 1.27  
Year to date precipitation 4.74  
Snow  
Snow 0.00 in 0.00 in 0.30 in (2005)
Month to date snowfall 0.9  
Since 1 July snowfall 40.9  
Snow Depth -    
Sea Level Pressure  
Sea Level Pressure 29.86 in    
Wind  
Wind Speed 9 mph (SW)    
Max Wind Speed 16 mph    
Max Gust Speed 29 mph    
Visibility 10 miles    
Events      
T = Trace of Precipitation, MM = Missing Value Source: NWS Daily Summary

Daily Weather History Graph

Daily Weather History Graph

Search for Another Location

Airport or City:

Trip Planner

Search our weather history database for the weather conditions in past years. The results will help you decide how hot, cold, wet, or windy it might be!

Date:

Astronomy

May. 13, 2013 Rise Set
Actual Time 5:27 AM MDT 8:10 PM MDT
Civil Twilight 4:54 AM MDT 8:43 PM MDT
Nautical Twilight 4:12 AM MDT 9:25 PM MDT
Astronomical Twilight 3:24 AM MDT 10:14 PM MDT
Moon 8:14 AM MDT (5/13) 11:21 PM MDT (5/13)
Length of Visible Light 15h 49m
Length of Day
14h 42m
Waxing Crescent, 12% of the Moon is Illuminated
May 13
Waxing Crescent
May 17
First Quarter
May 24
Full
May 31
Last Quarter
Jun 8
New

Hourly Weather History & Observations

Time (MDT) Temp. Dew Point Humidity Pressure Visibility Wind Dir Wind Speed Gust Speed Precip Events Conditions
12:58 AM 68.9 °F 36.0 °F 30% 29.90 in 10.0 mi South 8.1 mph - N/A   Clear
1:58 AM 66.7 °F 36.3 °F 33% 29.87 in 10.0 mi South 10.4 mph - N/A   Clear
2:58 AM 62.1 °F 37.2 °F 40% 29.86 in 10.0 mi South 4.6 mph - N/A   Scattered Clouds
3:58 AM 58.8 °F 38.5 °F 47% 29.85 in 10.0 mi SSW 6.9 mph - N/A   Overcast
4:58 AM 61.9 °F 39.6 °F 44% 29.84 in 10.0 mi West 9.2 mph - N/A   Partly Cloudy
5:58 AM 61.0 °F 42.8 °F 51% 29.85 in 10.0 mi West 9.2 mph - N/A   Clear
6:58 AM 66.6 °F 43.9 °F 44% 29.88 in 10.0 mi West 8.1 mph - N/A   Mostly Cloudy
7:58 AM 72.0 °F 49.1 °F 44% 29.90 in 10.0 mi WSW 8.1 mph - N/A   Clear
8:58 AM 80.1 °F 46.0 °F 30% 29.90 in 10.0 mi WNW 8.1 mph - N/A   Clear
9:58 AM 84.7 °F 41.0 °F 21% 29.89 in 10.0 mi North 13.8 mph - N/A   Clear
10:14 AM 86.0 °F 41.0 °F 20% 29.96 in 10.0 mi NW 16.1 mph 19.6 mph N/A   Clear
10:58 AM 86.7 °F 41.7 °F 21% 29.89 in 10.0 mi North 16.1 mph 21.9 mph N/A   Clear
11:05 AM 86.0 °F 41.0 °F 20% 29.96 in 10.0 mi North 15.0 mph - N/A   Clear
11:36 AM 87.8 °F 41.0 °F 19% 29.96 in 10.0 mi NW 16.1 mph - N/A   Scattered Clouds
11:58 AM 86.5 °F 42.1 °F 21% 29.89 in 10.0 mi North 13.8 mph 27.6 mph N/A   Scattered Clouds
12:58 PM 87.1 °F 39.2 °F 18% 29.87 in 10.0 mi North 15.0 mph 28.8 mph N/A   Clear
1:22 PM 87.8 °F 39.2 °F 18% 29.95 in 10.0 mi North 13.8 mph 24.2 mph N/A   Clear
1:31 PM 87.8 °F 39.2 °F 18% 29.94 in 10.0 mi NNW 16.1 mph - N/A   Clear
2:58 PM 87.4 °F 40.1 °F 19% 29.87 in 10.0 mi NNE 4.6 mph - N/A   Overcast
3:58 PM 88.2 °F 42.1 °F 20% 29.86 in 10.0 mi SSE 3.5 mph - N/A   Clear
4:58 PM 88.0 °F 41.7 °F 20% 29.82 in 10.0 mi Variable 2.3 mph - N/A   Clear
5:48 PM 87.8 °F 46.4 °F 24% 29.88 in 10.0 mi SSE 4.6 mph - N/A   Light Drizzle
5:58 PM 86.5 °F 45.0 °F 23% 29.82 in 10.0 mi South 8.1 mph - 0.00 in   Light Drizzle
5:59 PM 86.0 °F 46.4 °F 25% 29.88 in 10.0 mi South 6.9 mph - N/A   Clear
6:58 PM 83.3 °F 48.0 °F 29% 29.79 in 10.0 mi SE 8.1 mph - 0.00 in   Clear
7:58 PM 77.9 °F 47.5 °F 34% 29.78 in 10.0 mi SE 8.1 mph - N/A   Clear
8:19 PM 75.2 °F 46.4 °F 36% 29.84 in 10.0 mi SE 10.4 mph - N/A   Light Drizzle
8:27 PM 75.2 °F 46.4 °F 36% 29.84 in 10.0 mi SE 10.4 mph - N/A   Clear
8:58 PM 74.1 °F 43.7 °F 34% 29.77 in 10.0 mi SE 10.4 mph - 0.00 in   Clear
9:58 PM 71.2 °F 45.9 °F 40% 29.75 in 10.0 mi South 6.9 mph - N/A   Clear
10:58 PM 69.4 °F 44.1 °F 40% 29.72 in 10.0 mi SSW 6.9 mph - N/A   Clear
11:58 PM 69.1 °F 43.0 °F 39% 29.69 in 10.0 mi South 8.1 mph - N/A   Clear